Terug naar catalogus

COSMOS 2500

GLONASS

ActiefNavigatieMEO
NORAD 40001·PAYLOAD·🇷🇺 Russia

Gelanceerd Jun 14, 2014 vanaf Plesetsk Cosmodrome

Loading…

Volgende Passages (komende 24 uur)

TLE

VersSource: CelesTrak SupGP

Epoch: Sep 8, 2026, 23:59 UTC

1 40001C 14032A   26251.99979167  .00000000  00000+0  00000+0 0  2517
2 40001  65.1788 310.8246 0009531 204.2730 128.7433  2.13105753    18

Volg COSMOS 2500 in realtime met AllMySat

Download on the App Store